Total_Precipitation_Accumulation
0.04 0.07 0.07 0.09 0.04 0.08 0.10 0.06 0.03 0.04 0.06 0.03 0.02 0.01 0.01 0.02 0.01 0.03 0.08 0.08 0.04 0.02 0.01 0.01 0.01 0.01 0.03 0.04 0.05 0.10 0.14 0.13 0.14 0.12 0.05 0.02 0.02 0.01 0.00 0.00 0.00 0.00 0.00
0.06 0.12 0.11 0.08 0.06 0.07 0.12 0.13 0.10 0.20 0.14 0.07 0.05 0.04 0.03 0.03 0.03 0.04 0.05 0.07 0.06 0.03 0.01 0.00 0.00 0.00 0.00 0.01 0.03 0.06 0.09 0.10 0.10 0.08 0.04 0.02 0.04 0.03 0.01 0.00 0.00 0.00 0.00
0.06 0.11 0.15 0.11 0.12 0.10 0.14 0.16 0.19 0.23 0.09 0.07 0.05 0.02 0.02 0.01 0.02 0.01 0.01 0.03 0.07 0.07 0.03 0.01 0.00 0.00 0.00 0.00 0.01 0.04 0.08 0.09 0.11 0.07 0.03 0.02 0.07 0.09 0.06 0.02 0.01 0.00 0.00
0.06 0.11 0.12 0.08 0.11 0.18 0.20 0.19 0.21 0.18 0.12 0.07 0.03 0.01 0.00 0.01 0.00 0.00 0.00 0.01 0.03 0.05 0.04 0.01 0.00 0.00 0.00 0.00 0.01 0.03 0.09 0.13 0.17 0.12 0.06 0.04 0.08 0.11 0.08 0.05 0.03 0.01 0.00
0.03 0.08 0.08 0.11 0.13 0.16 0.19 0.13 0.17 0.11 0.13 0.11 0.03 0.02 0.00 0.00 0.00 0.00 0.00 0.00 0.01 0.01 0.01 0.01 0.00 0.00 0.01 0.02 0.03 0.04 0.09 0.17 0.21 0.18 0.12 0.07 0.07 0.08 0.08 0.08 0.06 0.03 0.01
0.04 0.11 0.14 0.17 0.14 0.18 0.19 0.17 0.20 0.19 0.20 0.17 0.05 0.04 0.02 0.00 0.00 0.00 0.00 0.00 0.01 0.00 0.00 0.00 0.00 0.01 0.03 0.02 0.02 0.01 0.03 0.11 0.19 0.19 0.17 0.14 0.13 0.15 0.16 0.14 0.13 0.09 0.05
0.05 0.13 0.14 0.18 0.14 0.12 0.18 0.18 0.22 0.19 0.21 0.20 0.14 0.09 0.02 0.01 0.01 0.00 0.00 0.00 0.00 0.00 0.00 0.00 0.00 0.00 0.01 0.01 0.01 0.02 0.03 0.07 0.14 0.17 0.18 0.21 0.24 0.32 0.30 0.28 0.27 0.20 0.10
0.04 0.09 0.15 0.16 0.16 0.22 0.28 0.30 0.33 0.25 0.17 0.16 0.16 0.14 0.07 0.09 0.10 0.02 0.00 0.00 0.00 0.00 0.00 0.00 0.00 0.00 0.00 0.00 0.00 0.02 0.02 0.04 0.07 0.13 0.19 0.28 0.38 0.44 0.38 0.35 0.29 0.19 0.08
0.05 0.12 0.18 0.24 0.35 0.38 0.36 0.38 0.36 0.35 0.28 0.26 0.23 0.22 0.16 0.17 0.10 0.01 0.00 0.00 0.00 0.00 0.00 0.00 0.00 0.00 0.00 0.00 0.00 0.01 0.02 0.02 0.02 0.04 0.15 0.28 0.40 0.43 0.47 0.42 0.29 0.13 0.03
0.11 0.15 0.20 0.27 0.32 0.34 0.36 0.30 0.34 0.42 0.39 0.31 0.30 0.27 0.22 0.17 0.12 0.06 0.04 0.02 0.01 0.01 0.00 0.00 0.00 0.00 0.00 0.00 0.00 0.00 0.01 0.00 0.03 0.07 0.15 0.25 0.31 0.37 0.45 0.39 0.23 0.08 0.02
0.18 0.23 0.24 0.25 0.24 0.24 0.31 0.33 0.36 0.35 0.35 0.33 0.29 0.31 0.26 0.18 0.15 0.12 0.10 0.10 0.06 0.01 0.00 0.00 0.00 0.00 0.00 0.00 0.00 0.01 0.00 0.01 0.08 0.14 0.13 0.20 0.22 0.24 0.29 0.25 0.13 0.04 0.01
0.18 0.24 0.28 0.30 0.28 0.28 0.31 0.29 0.28 0.25 0.27 0.29 0.28 0.29 0.27 0.23 0.25 0.23 0.17 0.13 0.08 0.01 0.00 0.00 0.00 0.00 0.00 0.00 0.00 0.00 0.00 0.01 0.07 0.14 0.13 0.18 0.17 0.15 0.14 0.10 0.04 0.01 0.00
0.13 0.16 0.21 0.28 0.29 0.30 0.26 0.22 0.25 0.26 0.28 0.28 0.26 0.26 0.24 0.18 0.16 0.17 0.16 0.10 0.07 0.02 0.02 0.01 0.01 0.00 0.01 0.00 0.01 0.02 0.02 0.01 0.03 0.08 0.08 0.09 0.08 0.06 0.06 0.06 0.01 0.00 0.00
0.11 0.13 0.19 0.27 0.30 0.30 0.29 0.27 0.24 0.24 0.26 0.28 0.30 0.31 0.20 0.13 0.12 0.15 0.16 0.15 0.10 0.09 0.15 0.06 0.04 0.02 0.01 0.00 0.01 0.01 0.03 0.02 0.03 0.04 0.02 0.02 0.02 0.01 0.01 0.01 0.00 0.00 0.00
0.12 0.13 0.17 0.22 0.31 0.39 0.41 0.36 0.29 0.26 0.27 0.28 0.32 0.30 0.16 0.10 0.10 0.13 0.16 0.19 0.15 0.10 0.13 0.18 0.16 0.06 0.03 0.03 0.01 0.01 0.03 0.04 0.04 0.03 0.01 0.00 0.00 0.00 0.00 0.00 0.00 0.00 0.00
0.11 0.15 0.19 0.23 0.25 0.28 0.29 0.27 0.29 0.29 0.25 0.22 0.19 0.14 0.09 0.07 0.10 0.12 0.17 0.18 0.19 0.16 0.12 0.26 0.28 0.11 0.10 0.03 0.01 0.01 0.02 0.03 0.04 0.02 0.01 0.00 0.00 0.00 0.00 0.00 0.00 0.00 0.00
0.08 0.11 0.14 0.12 0.10 0.08 0.07 0.07 0.10 0.11 0.09 0.06 0.03 0.02 0.04 0.07 0.09 0.12 0.16 0.19 0.21 0.23 0.17 0.26 0.40 0.28 0.20 0.10 0.04 0.06 0.03 0.01 0.01 0.01 0.00 0.00 0.00 0.00 0.00 0.00 0.00 0.00 0.00
0.04 0.06 0.06 0.04 0.02 0.01 0.01 0.01 0.01 0.01 0.01 0.00 0.00 0.01 0.03 0.08 0.11 0.12 0.16 0.21 0.25 0.28 0.24 0.21 0.31 0.38 0.33 0.18 0.11 0.09 0.06 0.02 0.05 0.04 0.01 0.00 0.00 0.00 0.00 0.00 0.00 0.00 0.00
0.00 0.00 0.00 0.00 0.00 0.00 0.00 0.00 0.00 0.00 0.00 0.00 0.00 0.01 0.02 0.04 0.07 0.10 0.15 0.19 0.22 0.33 0.30 0.23 0.25 0.38 0.36 0.24 0.20 0.14 0.14 0.16 0.09 0.09 0.04 0.01 0.00 0.00 0.00 0.00 0.00 0.00 0.00
0.00 0.00 0.00 0.00 0.00 0.00 0.00 0.01 0.01 0.01 0.01 0.01 0.02 0.02 0.01 0.02 0.04 0.07 0.12 0.15 0.18 0.19 0.21 0.23 0.25 0.35 0.37 0.27 0.30 0.27 0.20 0.19 0.14 0.11 0.12 0.05 0.01 0.00 0.00 0.00 0.00 0.00 0.00
0.00 0.00 0.00 0.00 0.00 0.00 0.00 0.00 0.02 0.03 0.03 0.04 0.05 0.01 0.00 0.00 0.01 0.02 0.05 0.11 0.13 0.15 0.18 0.23 0.27 0.33 0.42 0.32 0.24 0.27 0.25 0.19 0.18 0.27 0.34 0.18 0.04 0.01 0.01 0.01 0.01 0.01 0.01
0.00 0.00 0.00 0.00 0.00 0.00 0.00 0.00 0.01 0.01 0.01 0.02 0.03 0.01 0.00 0.00 0.01 0.01 0.01 0.02 0.02 0.06 0.13 0.20 0.25 0.30 0.38 0.40 0.26 0.20 0.19 0.21 0.20 0.25 0.41 0.44 0.29 0.18 0.14 0.06 0.03 0.03 0.03
0.03 0.02 0.01 0.00 0.00 0.00 0.00 0.00 0.00 0.00 0.00 0.00 0.00 0.00 0.00 0.00 0.00 0.01 0.01 0.02 0.03 0.01 0.03 0.11 0.13 0.13 0.18 0.20 0.19 0.22 0.24 0.20 0.22 0.29 0.31 0.47 0.71 0.60 0.34 0.20 0.14 0.08 0.04
0.09 0.09 0.04 0.02 0.00 0.00 0.00 0.00 0.00 0.00 0.00 0.00 0.00 0.00 0.00 0.00 0.00 0.00 0.01 0.04 0.04 0.01 0.01 0.02 0.01 0.01 0.02 0.03 0.03 0.05 0.13 0.22 0.21 0.27 0.32 0.38 0.64 1.06 0.85 0.48 0.34 0.22 0.14
0.07 0.10 0.06 0.03 0.01 0.00 0.00 0.00 0.00 0.00 0.00 0.00 0.00 0.00 0.00 0.00 0.00 0.00 0.00 0.01 0.01 0.01 0.00 0.00 0.00 0.00 0.00 0.00 0.00 0.03 0.03 0.06 0.16 0.34 0.41 0.41 0.44 0.74 1.21 0.98 0.54 0.26 0.13
0.01 0.02 0.03 0.05 0.04 0.01 0.00 0.00 0.00 0.00 0.00 0.00 0.00 0.00 0.00 0.00 0.00 0.00 0.00 0.00 0.00 0.00 0.00 0.00 0.00 0.00 0.00 0.00 0.01 0.01 0.01 0.02 0.06 0.22 0.40 0.43 0.42 0.48 0.81 1.09 0.84 0.44 0.19